Regional Weather Roundup
Issued by NWS

Home | Current Version | Previous Version | Graphics & Text | Print | Product List | Glossary Off
Versions: 1 2 3 4 5 6 7 8 9 10 11 12 13 14 15 16 17 18 19 20 21 22 23 24 25 26 27 28 29 30 31 32 33 34 35 36 37 38 39 40 41 42 43 44 45 46 47 48 49 50

000
ASUS43 KTOP 240008
RWRKS

WEATHER ROUNDUP FOR KANSAS
NATIONAL WEATHER SERVICE GOODLAND KS
700 PM CDT TUE SEP 23 2014

NOTE:  "FAIR" INDICATES FEW OR NO CLOUDS BELOW 12,000 FEET WITH NO
SIGNIFICANT WEATHER AND/OR OBSTRUCTIONS TO VISIBILITY.

KSZ001>006-013>018-027>032-041>047-240100-
NORTHWEST KANSAS

CITY           SKY/WX    TMP DP  RH WIND       PRES   REMARKS
GOODLAND       CLOUDY    75  57  53 SW6       30.03F
6HR MIN TEMP:  74; 6HR MAX TEMP:  84;

HILL CITY      PTCLDY    79  60  52 S13G23    29.97R
6HR MIN TEMP:  76; 6HR MAX TEMP:  86;

RUSSELL        MOCLDY    74  57  55 SE15      29.97S
6HR MIN TEMP:  70; 6HR MAX TEMP:  81; 6HR PCP: TRACE;

$$

KSZ061>065-074>080-084>089-240100-
SOUTHWEST KANSAS

CITY           SKY/WX    TMP DP  RH WIND       PRES   REMARKS
DODGE CITY     TSTM      74  61  63 NW12G20   30.00R
6HR MIN TEMP:  81; 6HR MAX TEMP:  91; 6HR PCP: TRACE;

ELKHART          N/A     84  54  35 S12         N/A
GARDEN CITY    CLOUDY    79  59  50 E22G28    29.96R
6HR MIN TEMP:  79; 6HR MAX TEMP:  90;

GREAT BEND     MOCLDY    75  55  50 SE12      29.99R
LIBERAL        MOCLDY    88  57  35 S23G29    29.96R
PRATT          CLOUDY    79  52  38 SE12      30.02R
$$

KSZ066>073-081>083-090>101-240100-
SOUTHEAST KANSAS

CITY           SKY/WX    TMP DP  RH WIND       PRES   REMARKS
CHANUTE        CLEAR     69  53  56 SE8       30.13S
6HR MIN TEMP:  69; 6HR MAX TEMP:  76;

COFFEYVILLE    CLEAR     72  55  55 SE7       30.12R
6HR MIN TEMP:  72; 6HR MAX TEMP:  77;

HUTCHINSON     CLOUDY    76  52  43 SE14      30.03S
6HR MIN TEMP:  76; 6HR MAX TEMP:  84; 6HR PCP: TRACE;

MEDICINE LODGE   N/A     80  54  40 SE15G22   30.00R
NEWTON         CLOUDY    73  48  40 S15       30.09S
PARSONS        CLEAR     71  54  54 VRB5      30.13F
6HR MIN TEMP:  71; 6HR MAX TEMP:  77;

WICHITA INTL   MOCLDY    75  51  43 SE16      30.05S
6HR MIN TEMP:  75; 6HR MAX TEMP:  83; 6HR PCP: TRACE;

WICHITA JABRA  MOCLDY    73  51  46 SE15G21   30.06R
6HR MIN TEMP:  72; 6HR MAX TEMP:  80; 6HR PCP: TRACE;

WICHITA MCCONL MOCLDY    73  53  48 SE13      30.06S
WINFIELD       MOCLDY    73  52  47 SE13      30.08F
6HR MIN TEMP:  73; 6HR MAX TEMP:  81; 6HR PCP: TRACE;

$$

KSZ007>012-019>026-033>040-048>060-102>105-240100-
NORTHEAST KANSAS

CITY           SKY/WX    TMP DP  RH WIND       PRES   REMARKS
CONCORDIA      CLOUDY    66  61  84 SE16      30.02F
6HR MIN TEMP:  59; 6HR MAX TEMP:  66; 6HR PCP:  0.01;

EMPORIA        CLOUDY    70  54  56 SE9       30.10R
6HR MIN TEMP:  70; 6HR MAX TEMP:  76;

LAWRENCE       CLOUDY    69  53  56 SE7       30.13S
6HR MIN TEMP:  69; 6HR MAX TEMP:  76;

MANHATTAN      LGT RAIN  66  60  81 SE7       30.07F
6HR MIN TEMP:  64; 6HR MAX TEMP:  75; 6HR PCP:  0.05;

MARYSVILLE     CLOUDY    63  57  82 SE14      30.08F
OLATHE IND     MOCLDY    69  53  56 SE10      30.15S
6HR MIN TEMP:  69; 6HR MAX TEMP:  75;

OLATHE EXE     MOCLDY    69  51  52 SE7       30.15R
6HR MIN TEMP:  69; 6HR MAX TEMP:  74;

SALINA         MOCLDY    73  57  57 SE13      30.02S
6HR MIN TEMP:  66; 6HR MAX TEMP:  77; 6HR PCP:  0.01;

TOPEKA BILLARD LGT RAIN  68  59  73 SE9       30.10F
6HR MIN TEMP:  68; 6HR MAX TEMP:  77; 6HR PCP: TRACE;

TOPEKA FORBES  CLOUDY    69  55  60 E7        30.11F
6HR MIN TEMP:  69; 6HR MAX TEMP:  77;

$$


USA.gov is the U.S. government's official web portal to all federal, state and local government web resources and services.